UAL783 KCLT-KATL

Flight info

Callsign UAL783
Flight time 0h 39m
Altitude 32000
Route BOBZY5 TNSLY LEAVI OZZZI2
Aircraft A319/M-SDE3FGHIRWY/LB1

Departure

Time 2026-05-05 00:00
Airport Charlotte Douglas International Airport (KCLT)

Arrival

Time 2026-05-05 00:40
Airport Hartsfield Jackson Atlanta International Airport (KATL)
Time Latitude Longitude Altitude Speed Heading
2026-05-04 23:35 35.22267 -80.93951 731 ft 0 kts 357°
2026-05-04 23:46 35.22257 -80.93950 732 ft 4 kts 356°
2026-05-04 23:46 35.22229 -80.93948 732 ft 4 kts 356°
2026-05-04 23:46 35.22203 -80.93947 733 ft 4 kts
2026-05-04 23:46 35.22187 -80.93948 732 ft 2 kts 31°
2026-05-04 23:47 35.22178 -80.93957 732 ft 2 kts 75°
2026-05-04 23:47 35.22176 -80.93970 731 ft 2 kts 85°
2026-05-04 23:47 35.22176 -80.93975 731 ft 0 kts 85°
2026-05-04 23:48 35.22177 -80.93959 731 ft 5 kts 85°
2026-05-04 23:48 35.22177 -80.93902 731 ft 8 kts 103°
2026-05-04 23:49 35.22187 -80.93816 733 ft 12 kts 79°
2026-05-04 23:49 35.22155 -80.93726 733 ft 15 kts 168°
2026-05-04 23:49 35.22038 -80.93716 733 ft 19 kts 176°
2026-05-04 23:49 35.21894 -80.93702 734 ft 22 kts 175°
2026-05-04 23:50 35.21733 -80.93688 734 ft 25 kts 177°
2026-05-04 23:50 35.21614 -80.93724 733 ft 16 kts 209°
2026-05-04 23:50 35.21529 -80.93815 731 ft 18 kts 242°
2026-05-04 23:50 35.21456 -80.93929 735 ft 18 kts 231°
2026-05-04 23:51 35.21371 -80.94054 735 ft 20 kts 230°
2026-05-04 23:51 35.21293 -80.94177 735 ft 14 kts 241°
2026-05-04 23:51 35.21284 -80.94219 733 ft 6 kts 264°
2026-05-04 23:51 35.21259 -80.94290 732 ft 11 kts 229°
2026-05-04 23:52 35.21203 -80.94365 731 ft 13 kts 229°
2026-05-04 23:52 35.21137 -80.94457 732 ft 16 kts 229°
2026-05-04 23:52 35.21057 -80.94567 731 ft 19 kts 228°
2026-05-04 23:52 35.20964 -80.94694 730 ft 21 kts 227°
2026-05-04 23:53 35.20884 -80.94825 730 ft 13 kts 266°
2026-05-04 23:53 35.20962 -80.94922 723 ft 20 kts 320°
2026-05-04 23:53 35.21075 -80.94975 731 ft 16 kts 357°
2026-05-04 23:53 35.21189 -80.94984 733 ft 17 kts 355°
2026-05-04 23:54 35.21311 -80.94996 733 ft 18 kts 355°
2026-05-04 23:54 35.21445 -80.95006 733 ft 20 kts 357°
2026-05-04 23:54 35.21584 -80.95019 734 ft 21 kts 355°
2026-05-04 23:54 35.21733 -80.95031 734 ft 22 kts 356°
2026-05-04 23:55 35.21893 -80.95045 733 ft 24 kts 355°
2026-05-04 23:55 35.22064 -80.95059 734 ft 25 kts 356°
2026-05-04 23:55 35.22329 -80.95108 734 ft 7 kts 307°
2026-05-04 23:56 35.22334 -80.95141 735 ft 10 kts 272°
2026-05-04 23:56 35.22333 -80.95162 736 ft 0 kts 266°
2026-05-04 23:57 35.22333 -80.95164 736 ft 2 kts 266°
2026-05-04 23:57 35.22331 -80.95212 738 ft 9 kts 266°
2026-05-04 23:58 35.22281 -80.95279 741 ft 15 kts 181°
2026-05-04 23:58 35.22244 -80.95276 741 ft 0 kts 175°
2026-05-04 23:59 35.22133 -80.95267 742 ft 52 kts 176°
2026-05-05 00:00 35.21490 -80.95211 738 ft 131 kts 176°
2026-05-05 00:00 35.21156 -80.95184 738 ft 154 kts 176°
2026-05-05 00:00 35.19287 -80.95124 1945 ft 163 kts 194°
2026-05-05 00:00 35.18457 -80.96019 2681 ft 175 kts 244°
2026-05-05 00:01 35.18321 -80.97605 3086 ft 203 kts 268°
2026-05-05 00:01 35.18397 -80.99435 3518 ft 228 kts 270°
2026-05-05 00:01 35.18506 -81.01474 4038 ft 252 kts 270°
2026-05-05 00:01 35.18617 -81.03666 4905 ft 262 kts 270°
2026-05-05 00:02 35.18718 -81.05898 5906 ft 264 kts 271°
2026-05-05 00:02 35.18803 -81.08153 6935 ft 266 kts 271°
2026-05-05 00:02 35.18877 -81.10420 7906 ft 268 kts 271°
2026-05-05 00:02 35.18948 -81.12711 8887 ft 271 kts 271°
2026-05-05 00:03 35.19015 -81.15020 9854 ft 274 kts 271°
2026-05-05 00:03 35.19080 -81.17388 10468 ft 289 kts 271°
2026-05-05 00:03 35.19146 -81.19931 10881 ft 307 kts 271°
2026-05-05 00:03 35.19213 -81.22579 11594 ft 314 kts 271°
2026-05-05 00:04 35.19280 -81.25260 12387 ft 318 kts 271°
2026-05-05 00:04 35.19347 -81.27981 13209 ft 321 kts 272°
2026-05-05 00:04 35.19415 -81.30723 13995 ft 324 kts 272°
2026-05-05 00:04 35.19476 -81.33491 14695 ft 328 kts 271°
2026-05-05 00:05 35.19476 -81.35344 15168 ft 330 kts 270°
2026-05-05 00:05 35.19418 -81.38160 15870 ft 333 kts 269°
2026-05-05 00:05 35.19289 -81.41941 16800 ft 338 kts 268°
2026-05-05 00:05 35.19217 -81.43890 17272 ft 340 kts 268°
2026-05-05 00:06 35.19112 -81.46784 17965 ft 343 kts 269°
2026-05-05 00:06 35.19014 -81.49677 18602 ft 347 kts 269°
2026-05-05 00:06 35.18919 -81.52678 19230 ft 350 kts 269°
2026-05-05 00:06 35.18830 -81.55664 19871 ft 352 kts 269°
2026-05-05 00:07 35.18731 -81.58659 20511 ft 354 kts 268°
2026-05-05 00:07 35.18623 -81.61671 21151 ft 356 kts 267°
2026-05-05 00:07 35.18239 -81.64680 21755 ft 360 kts 257°
2026-05-05 00:07 35.17528 -81.67582 22357 ft 362 kts 255°
2026-05-05 00:08 35.16795 -81.70542 22962 ft 365 kts 255°
2026-05-05 00:08 35.16053 -81.73561 23566 ft 368 kts 255°
2026-05-05 00:08 35.15316 -81.76568 24065 ft 370 kts 255°
2026-05-05 00:08 35.14573 -81.79588 24542 ft 373 kts 255°
2026-05-05 00:09 35.13821 -81.82631 25022 ft 375 kts 255°
2026-05-05 00:09 35.13064 -81.85687 25486 ft 377 kts 255°
2026-05-05 00:09 35.12298 -81.88768 25965 ft 380 kts 255°
2026-05-05 00:09 35.11537 -81.91826 26425 ft 382 kts 255°
2026-05-05 00:10 35.10749 -81.94979 26891 ft 384 kts 255°
2026-05-05 00:10 35.09977 -81.98068 27326 ft 387 kts 255°
2026-05-05 00:10 35.09187 -82.01233 27786 ft 389 kts 255°
2026-05-05 00:10 35.08401 -82.04399 28232 ft 392 kts 255°
2026-05-05 00:11 35.07613 -82.07594 28671 ft 394 kts 255°
2026-05-05 00:11 35.06817 -82.10815 29108 ft 397 kts 255°
2026-05-05 00:11 35.06019 -82.14042 29549 ft 400 kts 255°
2026-05-05 00:11 35.05206 -82.17327 29974 ft 402 kts 255°
2026-05-05 00:12 35.04383 -82.20644 30357 ft 405 kts 255°
2026-05-05 00:12 35.03562 -82.23940 30718 ft 407 kts 255°
2026-05-05 00:12 35.02744 -82.27208 31089 ft 408 kts 255°
2026-05-05 00:12 35.01866 -82.30508 31458 ft 410 kts 250°
2026-05-05 00:13 35.00600 -82.33652 31830 ft 413 kts 242°
2026-05-05 00:13 34.99136 -82.36668 32017 ft 411 kts 242°
2026-05-05 00:13 34.97712 -82.39619 32050 ft 397 kts 242°
2026-05-05 00:14 34.94902 -82.45472 32051 ft 409 kts 242°
2026-05-05 00:14 34.91964 -82.51593 32053 ft 427 kts 242°
2026-05-05 00:15 34.88903 -82.57931 32044 ft 437 kts 242°
2026-05-05 00:15 34.85717 -82.64270 32043 ft 439 kts 239°
2026-05-05 00:16 34.82220 -82.70330 32045 ft 441 kts 236°
2026-05-05 00:16 34.78644 -82.76229 32041 ft 418 kts 236°
2026-05-05 00:16 34.76969 -82.79047 31923 ft 405 kts 237°
2026-05-05 00:17 34.75363 -82.81844 31370 ft 403 kts 238°
2026-05-05 00:17 34.73804 -82.84625 30938 ft 392 kts 238°
2026-05-05 00:17 34.72301 -82.87330 30556 ft 382 kts 238°
2026-05-05 00:17 34.70801 -82.90033 30142 ft 378 kts 238°
2026-05-05 00:18 34.69333 -82.92666 29713 ft 374 kts 238°
2026-05-05 00:18 34.67874 -82.95263 29338 ft 369 kts 238°
2026-05-05 00:18 34.66427 -82.97820 28971 ft 365 kts 238°
2026-05-05 00:18 34.65011 -83.00316 28585 ft 362 kts 238°
2026-05-05 00:19 34.63590 -83.02821 28203 ft 359 kts 238°
2026-05-05 00:19 34.62181 -83.05306 27825 ft 356 kts 238°
2026-05-05 00:19 34.60786 -83.07766 27438 ft 353 kts 238°
2026-05-05 00:19 34.59381 -83.10240 27070 ft 350 kts 238°
2026-05-05 00:20 34.58004 -83.12666 26693 ft 347 kts 238°
2026-05-05 00:20 34.56638 -83.15068 26316 ft 344 kts 238°
2026-05-05 00:20 34.55284 -83.17443 25942 ft 341 kts 238°
2026-05-05 00:20 34.53939 -83.19798 25546 ft 339 kts 238°
2026-05-05 00:21 34.52602 -83.22144 25153 ft 336 kts 238°
2026-05-05 00:21 34.51293 -83.24440 24768 ft 334 kts 238°
2026-05-05 00:21 34.49974 -83.26753 24363 ft 333 kts 238°
2026-05-05 00:21 34.48656 -83.29061 23959 ft 331 kts 238°
2026-05-05 00:22 34.47345 -83.31350 23537 ft 330 kts 238°
2026-05-05 00:22 34.46029 -83.33627 23094 ft 330 kts 237°
2026-05-05 00:22 34.44683 -83.35944 22677 ft 344 kts 237°
2026-05-05 00:22 34.43260 -83.38384 22229 ft 346 kts 237°
2026-05-05 00:23 34.41873 -83.40760 21795 ft 345 kts 237°
2026-05-05 00:23 34.40470 -83.43162 21357 ft 343 kts 237°
2026-05-05 00:23 34.39097 -83.45517 20933 ft 341 kts 237°
2026-05-05 00:23 34.37736 -83.47851 20496 ft 339 kts 237°
2026-05-05 00:24 34.36380 -83.50176 20075 ft 337 kts 237°
2026-05-05 00:24 34.35031 -83.52488 19649 ft 335 kts 237°
2026-05-05 00:24 34.33676 -83.54811 19218 ft 344 kts 236°
2026-05-05 00:24 34.32267 -83.57223 18779 ft 357 kts 236°
2026-05-05 00:25 34.30843 -83.59658 18328 ft 359 kts 236°
2026-05-05 00:25 34.29393 -83.62109 17832 ft 358 kts 233°
2026-05-05 00:25 34.27645 -83.64247 17354 ft 360 kts 223°
2026-05-05 00:25 34.25683 -83.66329 16871 ft 376 kts 223°
2026-05-05 00:26 34.23715 -83.68416 16395 ft 378 kts 223°
2026-05-05 00:26 34.21739 -83.70513 15928 ft 377 kts 223°
2026-05-05 00:26 34.19769 -83.72607 15451 ft 376 kts 223°
2026-05-05 00:26 34.17810 -83.74691 14984 ft 374 kts 223°
2026-05-05 00:27 34.15854 -83.76770 14513 ft 373 kts 223°
2026-05-05 00:27 34.13912 -83.78834 14030 ft 371 kts 222°
2026-05-05 00:27 34.11955 -83.80912 13551 ft 386 kts 222°
2026-05-05 00:27 34.09870 -83.83127 13013 ft 402 kts 222°
2026-05-05 00:28 34.07716 -83.85420 12484 ft 403 kts 222°
2026-05-05 00:28 34.05650 -83.87631 11993 ft 401 kts 222°
2026-05-05 00:28 34.03573 -83.89858 11485 ft 397 kts 222°
2026-05-05 00:28 34.01515 -83.92066 10979 ft 394 kts 222°
2026-05-05 00:29 33.99390 -83.94344 10459 ft 390 kts 221°
2026-05-05 00:29 33.97127 -83.96104 9954 ft 388 kts 203°
2026-05-05 00:29 33.94530 -83.96694 9510 ft 371 kts 181°
2026-05-05 00:29 33.92055 -83.96591 9231 ft 340 kts 179°
2026-05-05 00:30 33.89823 -83.96491 9089 ft 312 kts 179°
2026-05-05 00:30 33.87768 -83.96404 8922 ft 290 kts 180°
2026-05-05 00:30 33.85751 -83.96323 8475 ft 281 kts 180°
2026-05-05 00:30 33.83821 -83.96246 8210 ft 276 kts 180°
2026-05-05 00:31 33.81906 -83.96171 8080 ft 275 kts 180°
2026-05-05 00:31 33.79995 -83.96093 7957 ft 275 kts 179°
2026-05-05 00:31 33.78093 -83.96017 7977 ft 274 kts 180°
2026-05-05 00:31 33.76223 -83.96328 7850 ft 268 kts 199°
2026-05-05 00:32 33.74536 -83.97042 7845 ft 254 kts 200°
2026-05-05 00:32 33.72926 -83.97723 7832 ft 236 kts 200°
2026-05-05 00:32 33.71432 -83.98354 7830 ft 221 kts 200°
2026-05-05 00:32 33.69997 -83.98963 7831 ft 217 kts 200°
2026-05-05 00:33 33.68578 -83.99568 7827 ft 216 kts 200°
2026-05-05 00:33 33.67157 -84.00183 7698 ft 219 kts 204°
2026-05-05 00:33 33.65921 -84.01241 7350 ft 220 kts 228°
2026-05-05 00:33 33.65133 -84.02803 7049 ft 221 kts 250°
2026-05-05 00:34 33.64902 -84.04630 6752 ft 224 kts 269°
2026-05-05 00:34 33.64912 -84.06498 6450 ft 224 kts 268°
2026-05-05 00:34 33.64914 -84.08340 6193 ft 221 kts 267°
2026-05-05 00:34 33.64915 -84.10170 5924 ft 217 kts 268°
2026-05-05 00:35 33.64919 -84.11970 5637 ft 214 kts 268°
2026-05-05 00:35 33.64921 -84.13169 5451 ft 212 kts 267°
2026-05-05 00:35 33.64925 -84.14926 5175 ft 209 kts 267°
2026-05-05 00:35 33.64927 -84.16739 4905 ft 229 kts 267°
2026-05-05 00:36 33.64931 -84.18685 4589 ft 238 kts 267°
2026-05-05 00:36 33.64935 -84.20702 4257 ft 243 kts 267°
2026-05-05 00:36 33.64939 -84.22736 3942 ft 243 kts 268°
2026-05-05 00:36 33.64943 -84.24761 3622 ft 242 kts 267°
2026-05-05 00:37 33.64945 -84.26775 3311 ft 241 kts 267°
2026-05-05 00:37 33.64948 -84.28741 2986 ft 234 kts 267°
2026-05-05 00:37 33.64951 -84.30608 2699 ft 213 kts 267°
2026-05-05 00:37 33.64953 -84.32314 2434 ft 197 kts 266°
2026-05-05 00:38 33.64953 -84.33928 2187 ft 191 kts 266°
2026-05-05 00:38 33.64954 -84.35470 1976 ft 181 kts 266°
2026-05-05 00:38 33.64955 -84.36934 1705 ft 167 kts 268°
2026-05-05 00:38 33.64956 -84.38222 1483 ft 145 kts 267°
2026-05-05 00:39 33.64955 -84.39390 1293 ft 136 kts 267°
2026-05-05 00:39 33.64955 -84.40505 1147 ft 132 kts 267°
2026-05-05 00:39 33.64954 -84.41590 1038 ft 119 kts 270°
2026-05-05 00:39 33.64950 -84.42415 1036 ft 75 kts 270°
2026-05-05 00:40 33.64905 -84.42738 1036 ft 19 kts 245°
2026-05-05 00:40 33.64848 -84.42856 1035 ft 17 kts 234°
2026-05-05 00:40 33.64737 -84.42881 1036 ft 15 kts 178°
2026-05-05 00:40 33.64665 -84.42848 1037 ft 0 kts 89°
2026-05-05 00:41 33.64648 -84.42833 1036 ft 5 kts 181°
2026-05-05 00:41 33.64600 -84.42830 1036 ft 9 kts 164°
2026-05-05 00:41 33.64535 -84.42792 1036 ft 12 kts 153°
2026-05-05 00:41 33.64452 -84.42794 1036 ft 14 kts 209°
2026-05-05 00:42 33.64353 -84.42809 1036 ft 16 kts 179°
2026-05-05 00:42 33.64234 -84.42809 1036 ft 18 kts 181°
2026-05-05 00:42 33.64100 -84.42810 1036 ft 20 kts 179°
2026-05-05 00:42 33.64030 -84.42839 1036 ft 3 kts 281°
2026-05-05 00:43 33.64031 -84.42873 1035 ft 6 kts 274°
2026-05-05 00:43 33.64031 -84.42890 1036 ft 0 kts 270°
2026-05-05 00:48 33.64031 -84.42889 1036 ft 0 kts 270°